owner,sensor,date,latitude,longitude,air_pressure(mBar),qcFlag 
FWRI,ioos:station:FWRI:OTB:1,2012-11-01T00:59:00Z,27.9320,-82.6475,762.3766,1111122 
FWRI,ioos:station:FWRI:OTB:1,2012-11-01T01:59:00Z,27.9320,-82.6475,762.5566,1111122 
FWRI,ioos:station:FWRI:OTB:1,2012-11-01T02:59:00Z,27.9320,-82.6475,762.765,1111122 
FWRI,ioos:station:FWRI:OTB:1,2012-11-01T03:59:00Z,27.9320,-82.6475,762.7916,1111122 
FWRI,ioos:station:FWRI:OTB:1,2012-11-01T04:59:00Z,27.9320,-82.6475,762.7416,1111122 
FWRI,ioos:station:FWRI:OTB:1,2012-11-01T05:59:00Z,27.9320,-82.6475,762.5033,1111122 
FWRI,ioos:station:FWRI:OTB:1,2012-11-01T06:59:00Z,27.9320,-82.6475,762.4033,1111122 
FWRI,ioos:station:FWRI:OTB:1,2012-11-01T07:59:00Z,27.9320,-82.6475,762.14,1111122 
FWRI,ioos:station:FWRI:OTB:1,2012-11-01T08:59:00Z,27.9320,-82.6475,761.96,1111122 
FWRI,ioos:station:FWRI:OTB:1,2012-11-01T09:59:00Z,27.9320,-82.6475,761.8216,1111122 
FWRI,ioos:station:FWRI:OTB:1,2012-11-01T10:59:00Z,27.9320,-82.6475,761.9167,1111122 
FWRI,ioos:station:FWRI:OTB:1,2012-11-01T11:59:00Z,27.9320,-82.6475,762.2183,1111122 
FWRI,ioos:station:FWRI:OTB:1,2012-11-01T12:59:00Z,27.9320,-82.6475,762.565,1111122 
FWRI,ioos:station:FWRI:OTB:1,2012-11-01T13:59:00Z,27.9320,-82.6475,762.9066,1111122 
FWRI,ioos:station:FWRI:OTB:1,2012-11-01T14:59:00Z,27.9320,-82.6475,763.2233,1111122 
FWRI,ioos:station:FWRI:OTB:1,2012-11-01T15:59:00Z,27.9320,-82.6475,763.2783,1111122 
FWRI,ioos:station:FWRI:OTB:1,2012-11-01T16:59:00Z,27.9320,-82.6475,762.8983,1111122 
FWRI,ioos:station:FWRI:OTB:1,2012-11-01T17:59:00Z,27.9320,-82.6475,762.235,1111122 
FWRI,ioos:station:FWRI:OTB:1,2012-11-01T18:59:00Z,27.9320,-82.6475,761.4716,1111122 
FWRI,ioos:station:FWRI:OTB:1,2012-11-01T19:59:00Z,27.9320,-82.6475,761.2466,1111122 
FWRI,ioos:station:FWRI:OTB:1,2012-11-01T20:59:00Z,27.9320,-82.6475,761.0733,1111122 
FWRI,ioos:station:FWRI:OTB:1,2012-11-01T21:59:00Z,27.9320,-82.6475,761.0316,1111122 
FWRI,ioos:station:FWRI:OTB:1,2012-11-01T22:59:00Z,27.9320,-82.6475,761.2016,1111122 
FWRI,ioos:station:FWRI:OTB:1,2012-11-01T23:59:00Z,27.9320,-82.6475,761.4666,1111122 
FWRI,ioos:station:FWRI:OTB:1,2012-11-02T00:59:00Z,27.9320,-82.6475,761.7416,1111122 
FWRI,ioos:station:FWRI:OTB:1,2012-11-02T01:59:00Z,27.9320,-82.6475,762.2033,1111122 
FWRI,ioos:station:FWRI:OTB:1,2012-11-02T02:59:00Z,27.9320,-82.6475,762.5483,1111122 
FWRI,ioos:station:FWRI:OTB:1,2012-11-02T03:59:00Z,27.9320,-82.6475,762.7883,1111122 
FWRI,ioos:station:FWRI:OTB:1,2012-11-02T04:59:00Z,27.9320,-82.6475,762.78,1111122 
FWRI,ioos:station:FWRI:OTB:1,2012-11-02T05:59:00Z,27.9320,-82.6475,762.7283,1111122 
FWRI,ioos:station:FWRI:OTB:1,2012-11-02T06:59:00Z,27.9320,-82.6475,762.8049,1111122 
FWRI,ioos:station:FWRI:OTB:1,2012-11-02T07:59:00Z,27.9320,-82.6475,762.7833,1111122 
FWRI,ioos:station:FWRI:OTB:1,2012-11-02T08:59:00Z,27.9320,-82.6475,762.9766,1111122 
FWRI,ioos:station:FWRI:OTB:1,2012-11-02T09:59:00Z,27.9320,-82.6475,763.0916,1111122 
FWRI,ioos:station:FWRI:OTB:1,2012-11-02T10:59:00Z,27.9320,-82.6475,763.085,1111122 
FWRI,ioos:station:FWRI:OTB:1,2012-11-02T11:59:00Z,27.9320,-82.6475,763.32,1111122 
FWRI,ioos:station:FWRI:OTB:1,2012-11-02T12:59:00Z,27.9320,-82.6475,763.665,1111122 
FWRI,ioos:station:FWRI:OTB:1,2012-11-02T13:59:00Z,27.9320,-82.6475,764.1367,1111122 
FWRI,ioos:station:FWRI:OTB:1,2012-11-02T14:59:00Z,27.9320,-82.6475,764.6166,1111122 
FWRI,ioos:station:FWRI:OTB:1,2012-11-02T15:59:00Z,27.9320,-82.6475,764.8666,1111122 
FWRI,ioos:station:FWRI:OTB:1,2012-11-02T16:59:00Z,27.9320,-82.6475,764.5383,1111122 
FWRI,ioos:station:FWRI:OTB:1,2012-11-02T17:59:00Z,27.9320,-82.6475,763.9999,1111122 
FWRI,ioos:station:FWRI:OTB:1,2012-11-02T18:59:00Z,27.9320,-82.6475,763.395,1111122 
FWRI,ioos:station:FWRI:OTB:1,2012-11-02T19:59:00Z,27.9320,-82.6475,763.195,1111122 
FWRI,ioos:station:FWRI:OTB:1,2012-11-02T20:59:00Z,27.9320,-82.6475,763.1266,1111122 
FWRI,ioos:station:FWRI:OTB:1,2012-11-02T21:59:00Z,27.9320,-82.6475,763.1249,1111122 
FWRI,ioos:station:FWRI:OTB:1,2012-11-02T22:59:00Z,27.9320,-82.6475,763.145,1111122 
FWRI,ioos:station:FWRI:OTB:1,2012-11-02T23:59:00Z,27.9320,-82.6475,763.3133,1111122 
FWRI,ioos:station:FWRI:OTB:1,2012-11-03T00:59:00Z,27.9320,-82.6475,763.7216,1111122 
FWRI,ioos:station:FWRI:OTB:1,2012-11-03T01:59:00Z,27.9320,-82.6475,764.03,1111122 
FWRI,ioos:station:FWRI:OTB:1,2012-11-03T02:59:00Z,27.9320,-82.6475,764.1799,1111122 
FWRI,ioos:station:FWRI:OTB:1,2012-11-03T03:59:00Z,27.9320,-82.6475,764.1049,1111122 
FWRI,ioos:station:FWRI:OTB:1,2012-11-03T04:59:00Z,27.9320,-82.6475,764.205,1111122 
FWRI,ioos:station:FWRI:OTB:1,2012-11-03T05:59:00Z,27.9320,-82.6475,763.9999,1111122 
FWRI,ioos:station:FWRI:OTB:1,2012-11-03T06:59:00Z,27.9320,-82.6475,763.8016,1111122 
FWRI,ioos:station:FWRI:OTB:1,2012-11-03T07:59:00Z,27.9320,-82.6475,763.675,1111122 
FWRI,ioos:station:FWRI:OTB:1,2012-11-03T08:59:00Z,27.9320,-82.6475,763.6783,1111122 
FWRI,ioos:station:FWRI:OTB:1,2012-11-03T09:59:00Z,27.9320,-82.6475,763.8167,1111122 
FWRI,ioos:station:FWRI:OTB:1,2012-11-03T10:59:00Z,27.9320,-82.6475,764.2433,1111122 
FWRI,ioos:station:FWRI:OTB:1,2012-11-03T11:59:00Z,27.9320,-82.6475,764.6332,1111122 
FWRI,ioos:station:FWRI:OTB:1,2012-11-03T12:59:00Z,27.9320,-82.6475,765.1317,1111122 
FWRI,ioos:station:FWRI:OTB:1,2012-11-03T13:59:00Z,27.9320,-82.6475,765.5166,1111122 
FWRI,ioos:station:FWRI:OTB:1,2012-11-03T14:59:00Z,27.9320,-82.6475,765.6916,1111122 
FWRI,ioos:station:FWRI:OTB:1,2012-11-03T15:59:00Z,27.9320,-82.6475,765.5716,1111122 
FWRI,ioos:station:FWRI:OTB:1,2012-11-03T16:59:00Z,27.9320,-82.6475,765.2933,1111122 
FWRI,ioos:station:FWRI:OTB:1,2012-11-03T17:59:00Z,27.9320,-82.6475,764.7567,1111122 
FWRI,ioos:station:FWRI:OTB:1,2012-11-03T18:59:00Z,27.9320,-82.6475,764.165,1111122 
FWRI,ioos:station:FWRI:OTB:1,2012-11-03T19:59:00Z,27.9320,-82.6475,763.8083,1111122 
FWRI,ioos:station:FWRI:OTB:1,2012-11-03T20:59:00Z,27.9320,-82.6475,763.57,1111122 
FWRI,ioos:station:FWRI:OTB:1,2012-11-03T21:59:00Z,27.9320,-82.6475,763.59,1111122 
FWRI,ioos:station:FWRI:OTB:1,2012-11-03T22:59:00Z,27.9320,-82.6475,763.7117,1111122 
FWRI,ioos:station:FWRI:OTB:1,2012-11-03T23:59:00Z,27.9320,-82.6475,763.9417,1111122 
FWRI,ioos:station:FWRI:OTB:1,2012-11-04T00:59:00Z,27.9320,-82.6475,764.1683,1111122 
FWRI,ioos:station:FWRI:OTB:1,2012-11-04T01:59:00Z,27.9320,-82.6475,764.315,1111122 
FWRI,ioos:station:FWRI:OTB:1,2012-11-04T02:59:00Z,27.9320,-82.6475,764.45,1111122 
FWRI,ioos:station:FWRI:OTB:1,2012-11-04T03:59:00Z,27.9320,-82.6475,764.5067,1111122 
FWRI,ioos:station:FWRI:OTB:1,2012-11-04T04:59:00Z,27.9320,-82.6475,764.5566,1111122 
FWRI,ioos:station:FWRI:OTB:1,2012-11-04T05:59:00Z,27.9320,-82.6475,764.5082,1111122 
FWRI,ioos:station:FWRI:OTB:1,2012-11-04T06:59:00Z,27.9320,-82.6475,764.3883,1111122 
FWRI,ioos:station:FWRI:OTB:1,2012-11-04T07:59:00Z,27.9320,-82.6475,764.1566,1111122 
FWRI,ioos:station:FWRI:OTB:1,2012-11-04T08:59:00Z,27.9320,-82.6475,764.1183,1111122 
FWRI,ioos:station:FWRI:OTB:1,2012-11-04T09:59:00Z,27.9320,-82.6475,764.1799,1111122 
FWRI,ioos:station:FWRI:OTB:1,2012-11-04T10:59:00Z,27.9320,-82.6475,764.3483,1111122 
FWRI,ioos:station:FWRI:OTB:1,2012-11-04T11:59:00Z,27.9320,-82.6475,764.6133,1111122 
FWRI,ioos:station:FWRI:OTB:1,2012-11-04T12:59:00Z,27.9320,-82.6475,764.91,1111122 
FWRI,ioos:station:FWRI:OTB:1,2012-11-04T13:59:00Z,27.9320,-82.6475,765.2,1111122 
FWRI,ioos:station:FWRI:OTB:1,2012-11-04T14:59:00Z,27.9320,-82.6475,765.1282,1111122 
FWRI,ioos:station:FWRI:OTB:1,2012-11-04T15:59:00Z,27.9320,-82.6475,765.0216,1111122 
FWRI,ioos:station:FWRI:OTB:1,2012-11-04T16:59:00Z,27.9320,-82.6475,764.69,1111122 
FWRI,ioos:station:FWRI:OTB:1,2012-11-04T17:59:00Z,27.9320,-82.6475,764.0633,1111122 
FWRI,ioos:station:FWRI:OTB:1,2012-11-04T18:59:00Z,27.9320,-82.6475,763.2516,1111122 
FWRI,ioos:station:FWRI:OTB:1,2012-11-04T19:59:00Z,27.9320,-82.6475,762.7366,1111122 
FWRI,ioos:station:FWRI:OTB:1,2012-11-04T20:59:00Z,27.9320,-82.6475,762.4883,1111122 
FWRI,ioos:station:FWRI:OTB:1,2012-11-04T21:59:00Z,27.9320,-82.6475,762.4066,1111122 
FWRI,ioos:station:FWRI:OTB:1,2012-11-04T22:59:00Z,27.9320,-82.6475,762.4816,1111122 
FWRI,ioos:station:FWRI:OTB:1,2012-11-04T23:59:00Z,27.9320,-82.6475,762.65,1111122 
FWRI,ioos:station:FWRI:OTB:1,2012-11-05T00:59:00Z,27.9320,-82.6475,762.8483,1111122 
FWRI,ioos:station:FWRI:OTB:1,2012-11-05T01:59:00Z,27.9320,-82.6475,763.0133,1111122 
FWRI,ioos:station:FWRI:OTB:1,2012-11-05T02:59:00Z,27.9320,-82.6475,762.9516,1111122 
FWRI,ioos:station:FWRI:OTB:1,2012-11-05T03:59:00Z,27.9320,-82.6475,762.69,1111122 
FWRI,ioos:station:FWRI:OTB:1,2012-11-05T04:59:00Z,27.9320,-82.6475,762.6033,1111122 
FWRI,ioos:station:FWRI:OTB:1,2012-11-05T05:59:00Z,27.9320,-82.6475,762.4183,1111122 
FWRI,ioos:station:FWRI:OTB:1,2012-11-05T06:59:00Z,27.9320,-82.6475,762.0766,1111122 
FWRI,ioos:station:FWRI:OTB:1,2012-11-05T07:59:00Z,27.9320,-82.6475,761.7599,1111122 
FWRI,ioos:station:FWRI:OTB:1,2012-11-05T08:59:00Z,27.9320,-82.6475,761.6249,1111122 
FWRI,ioos:station:FWRI:OTB:1,2012-11-05T09:59:00Z,27.9320,-82.6475,761.5949,1111122 
FWRI,ioos:station:FWRI:OTB:1,2012-11-05T10:59:00Z,27.9320,-82.6475,761.7,1111122 
FWRI,ioos:station:FWRI:OTB:1,2012-11-05T11:59:00Z,27.9320,-82.6475,761.9066,1111122 
FWRI,ioos:station:FWRI:OTB:1,2012-11-05T12:59:00Z,27.9320,-82.6475,762.0666,1111122 
FWRI,ioos:station:FWRI:OTB:1,2012-11-05T13:59:00Z,27.9320,-82.6475,762.1016,1111122 
FWRI,ioos:station:FWRI:OTB:1,2012-11-05T14:59:00Z,27.9320,-82.6475,762.3033,1111122 
FWRI,ioos:station:FWRI:OTB:1,2012-11-05T15:59:00Z,27.9320,-82.6475,762.2716,1111122 
FWRI,ioos:station:FWRI:OTB:1,2012-11-05T16:59:00Z,27.9320,-82.6475,762.0817,1111122 
FWRI,ioos:station:FWRI:OTB:1,2012-11-05T17:59:00Z,27.9320,-82.6475,761.4749,1111122 
FWRI,ioos:station:FWRI:OTB:1,2012-11-05T18:59:00Z,27.9320,-82.6475,760.9516,1111122 
FWRI,ioos:station:FWRI:OTB:1,2012-11-05T19:59:00Z,27.9320,-82.6475,760.67,1111122 
FWRI,ioos:station:FWRI:OTB:1,2012-11-05T20:59:00Z,27.9320,-82.6475,760.415,1111122 
FWRI,ioos:station:FWRI:OTB:1,2012-11-05T21:59:00Z,27.9320,-82.6475,760.5583,1111122 
FWRI,ioos:station:FWRI:OTB:1,2012-11-05T22:59:00Z,27.9320,-82.6475,760.65,1111122 
FWRI,ioos:station:FWRI:OTB:1,2012-11-05T23:59:00Z,27.9320,-82.6475,760.9016,1111122 
FWRI,ioos:station:FWRI:OTB:1,2012-11-06T00:59:00Z,27.9320,-82.6475,761.165,1111122 
FWRI,ioos:station:FWRI:OTB:1,2012-11-06T01:59:00Z,27.9320,-82.6475,761.3867,1111122 
FWRI,ioos:station:FWRI:OTB:1,2012-11-06T02:59:00Z,27.9320,-82.6475,761.4966,1111122 
FWRI,ioos:station:FWRI:OTB:1,2012-11-06T03:59:00Z,27.9320,-82.6475,761.2499,1111122 
FWRI,ioos:station:FWRI:OTB:1,2012-11-06T04:59:00Z,27.9320,-82.6475,760.6083,1111122 
FWRI,ioos:station:FWRI:OTB:1,2012-11-06T05:59:00Z,27.9320,-82.6475,760.3417,1111122 
FWRI,ioos:station:FWRI:OTB:1,2012-11-06T06:59:00Z,27.9320,-82.6475,760.0216,1111122 
FWRI,ioos:station:FWRI:OTB:1,2012-11-06T07:59:00Z,27.9320,-82.6475,759.4466,1111122 
FWRI,ioos:station:FWRI:OTB:1,2012-11-06T08:59:00Z,27.9320,-82.6475,759.4083,1111122 
FWRI,ioos:station:FWRI:OTB:1,2012-11-06T09:59:00Z,27.9320,-82.6475,759.57,1111122 
FWRI,ioos:station:FWRI:OTB:1,2012-11-06T10:59:00Z,27.9320,-82.6475,759.3333,1111122 
FWRI,ioos:station:FWRI:OTB:1,2012-11-06T11:59:00Z,27.9320,-82.6475,759.5999,1111122 
FWRI,ioos:station:FWRI:OTB:1,2012-11-06T12:59:00Z,27.9320,-82.6475,759.7567,1111122 
FWRI,ioos:station:FWRI:OTB:1,2012-11-06T13:59:00Z,27.9320,-82.6475,760.1283,1111122 
FWRI,ioos:station:FWRI:OTB:1,2012-11-06T14:59:00Z,27.9320,-82.6475,760.0233,1111122 
FWRI,ioos:station:FWRI:OTB:1,2012-11-06T15:59:00Z,27.9320,-82.6475,760.0833,1111122 
FWRI,ioos:station:FWRI:OTB:1,2012-11-06T16:59:00Z,27.9320,-82.6475,759.5683,1111122 
FWRI,ioos:station:FWRI:OTB:1,2012-11-06T17:59:00Z,27.9320,-82.6475,758.7966,1111122 
FWRI,ioos:station:FWRI:OTB:1,2012-11-06T18:59:00Z,27.9320,-82.6475,758.2916,1111122 
FWRI,ioos:station:FWRI:OTB:1,2012-11-06T19:59:00Z,27.9320,-82.6475,757.9283,1111122 
FWRI,ioos:station:FWRI:OTB:1,2012-11-06T20:59:00Z,27.9320,-82.6475,757.8666,1111122 
FWRI,ioos:station:FWRI:OTB:1,2012-11-06T21:59:00Z,27.9320,-82.6475,757.9417,1111122 
FWRI,ioos:station:FWRI:OTB:1,2012-11-06T22:59:00Z,27.9320,-82.6475,757.9299,1111122 
FWRI,ioos:station:FWRI:OTB:1,2012-11-06T23:59:00Z,27.9320,-82.6475,758.1866,1111122 
FWRI,ioos:station:FWRI:OTB:1,2012-11-07T00:59:00Z,27.9320,-82.6475,758.7883,1111122 
FWRI,ioos:station:FWRI:OTB:1,2012-11-07T01:59:00Z,27.9320,-82.6475,759.33,1111122 
FWRI,ioos:station:FWRI:OTB:1,2012-11-07T02:59:00Z,27.9320,-82.6475,759.47,1111122 
FWRI,ioos:station:FWRI:OTB:1,2012-11-07T03:59:00Z,27.9320,-82.6475,759.4483,1111122 
FWRI,ioos:station:FWRI:OTB:1,2012-11-07T04:59:00Z,27.9320,-82.6475,759.2183,1111122 
FWRI,ioos:station:FWRI:OTB:1,2012-11-07T05:59:00Z,27.9320,-82.6475,758.8167,1111122 
FWRI,ioos:station:FWRI:OTB:1,2012-11-07T06:59:00Z,27.9320,-82.6475,758.8583,1111122 
FWRI,ioos:station:FWRI:OTB:1,2012-11-07T07:59:00Z,27.9320,-82.6475,758.9933,1111122 
FWRI,ioos:station:FWRI:OTB:1,2012-11-07T08:59:00Z,27.9320,-82.6475,759.2117,1111122 
FWRI,ioos:station:FWRI:OTB:1,2012-11-07T09:59:00Z,27.9320,-82.6475,759.4733,1111122 
FWRI,ioos:station:FWRI:OTB:1,2012-11-07T10:59:00Z,27.9320,-82.6475,759.77,1111122 
FWRI,ioos:station:FWRI:OTB:1,2012-11-07T11:59:00Z,27.9320,-82.6475,760.17,1111122 
FWRI,ioos:station:FWRI:OTB:1,2012-11-07T12:59:00Z,27.9320,-82.6475,760.4567,1111122 
FWRI,ioos:station:FWRI:OTB:1,2012-11-07T13:59:00Z,27.9320,-82.6475,760.9999,1111122 
FWRI,ioos:station:FWRI:OTB:1,2012-11-07T14:59:00Z,27.9320,-82.6475,761.575,1111122 
FWRI,ioos:station:FWRI:OTB:1,2012-11-07T15:59:00Z,27.9320,-82.6475,761.6317,1111122 
FWRI,ioos:station:FWRI:OTB:1,2012-11-07T16:59:00Z,27.9320,-82.6475,761.2999,1111122 
FWRI,ioos:station:FWRI:OTB:1,2012-11-07T17:59:00Z,27.9320,-82.6475,760.6633,1111122 
FWRI,ioos:station:FWRI:OTB:1,2012-11-07T18:59:00Z,27.9320,-82.6475,760.1249,1111122 
FWRI,ioos:station:FWRI:OTB:1,2012-11-07T19:59:00Z,27.9320,-82.6475,759.7916,1111122 
FWRI,ioos:station:FWRI:OTB:1,2012-11-07T20:59:00Z,27.9320,-82.6475,759.6716,1111122 
FWRI,ioos:station:FWRI:OTB:1,2012-11-07T21:59:00Z,27.9320,-82.6475,759.7783,1111122 
FWRI,ioos:station:FWRI:OTB:1,2012-11-07T22:59:00Z,27.9320,-82.6475,759.8783,1111122 
FWRI,ioos:station:FWRI:OTB:1,2012-11-07T23:59:00Z,27.9320,-82.6475,760.3,1111122 
FWRI,ioos:station:FWRI:OTB:1,2012-11-08T00:59:00Z,27.9320,-82.6475,760.7667,1111122 
FWRI,ioos:station:FWRI:OTB:1,2012-11-08T01:59:00Z,27.9320,-82.6475,761.3133,1111122 
FWRI,ioos:station:FWRI:OTB:1,2012-11-08T02:59:00Z,27.9320,-82.6475,761.8066,1111122 
FWRI,ioos:station:FWRI:OTB:1,2012-11-08T03:59:00Z,27.9320,-82.6475,761.85,1111122 
FWRI,ioos:station:FWRI:OTB:1,2012-11-08T04:59:00Z,27.9320,-82.6475,762.1367,1111122 
FWRI,ioos:station:FWRI:OTB:1,2012-11-08T05:59:00Z,27.9320,-82.6475,762.0716,1111122 
FWRI,ioos:station:FWRI:OTB:1,2012-11-08T06:59:00Z,27.9320,-82.6475,762.3633,1111122 
FWRI,ioos:station:FWRI:OTB:1,2012-11-08T07:59:00Z,27.9320,-82.6475,762.4983,1111122 
FWRI,ioos:station:FWRI:OTB:1,2012-11-08T08:59:00Z,27.9320,-82.6475,762.55,1111122 
FWRI,ioos:station:FWRI:OTB:1,2012-11-08T09:59:00Z,27.9320,-82.6475,762.9316,1111122 
FWRI,ioos:station:FWRI:OTB:1,2012-11-08T10:59:00Z,27.9320,-82.6475,763.525,1111122 
FWRI,ioos:station:FWRI:OTB:1,2012-11-08T11:59:00Z,27.9320,-82.6475,764.0383,1111122 
FWRI,ioos:station:FWRI:OTB:1,2012-11-08T12:59:00Z,27.9320,-82.6475,764.75,1111122 
FWRI,ioos:station:FWRI:OTB:1,2012-11-08T13:59:00Z,27.9320,-82.6475,765.2816,1111122 
FWRI,ioos:station:FWRI:OTB:1,2012-11-08T14:59:00Z,27.9320,-82.6475,765.9466,1111122 
FWRI,ioos:station:FWRI:OTB:1,2012-11-08T15:59:00Z,27.9320,-82.6475,766.215,1111122 
FWRI,ioos:station:FWRI:OTB:1,2012-11-08T16:59:00Z,27.9320,-82.6475,766.015,1111122 
FWRI,ioos:station:FWRI:OTB:1,2012-11-08T17:59:00Z,27.9320,-82.6475,765.2617,1111122 
FWRI,ioos:station:FWRI:OTB:1,2012-11-08T18:59:00Z,27.9320,-82.6475,764.865,1111122 
FWRI,ioos:station:FWRI:OTB:1,2012-11-08T19:59:00Z,27.9320,-82.6475,764.7299,1111122 
FWRI,ioos:station:FWRI:OTB:1,2012-11-08T20:59:00Z,27.9320,-82.6475,764.6199,1111122 
FWRI,ioos:station:FWRI:OTB:1,2012-11-08T21:59:00Z,27.9320,-82.6475,764.6849,1111122 
FWRI,ioos:station:FWRI:OTB:1,2012-11-08T22:59:00Z,27.9320,-82.6475,764.9567,1111122 
FWRI,ioos:station:FWRI:OTB:1,2012-11-08T23:59:00Z,27.9320,-82.6475,765.2766,1111122 
FWRI,ioos:station:FWRI:OTB:1,2012-11-09T00:59:00Z,27.9320,-82.6475,765.69,1111122 
FWRI,ioos:station:FWRI:OTB:1,2012-11-09T01:59:00Z,27.9320,-82.6475,766.02,1111122 
FWRI,ioos:station:FWRI:OTB:1,2012-11-09T02:59:00Z,27.9320,-82.6475,766.3483,1111122 
FWRI,ioos:station:FWRI:OTB:1,2012-11-09T03:59:00Z,27.9320,-82.6475,766.6133,1111122 
FWRI,ioos:station:FWRI:OTB:1,2012-11-09T04:59:00Z,27.9320,-82.6475,766.6016,1111122 
FWRI,ioos:station:FWRI:OTB:1,2012-11-09T05:59:00Z,27.9320,-82.6475,766.4,1111122 
FWRI,ioos:station:FWRI:OTB:1,2012-11-09T06:59:00Z,27.9320,-82.6475,766.4,1111122 
FWRI,ioos:station:FWRI:OTB:1,2012-11-09T07:59:00Z,27.9320,-82.6475,766.4233,1111122 
FWRI,ioos:station:FWRI:OTB:1,2012-11-09T08:59:00Z,27.9320,-82.6475,766.52,1111122 
FWRI,ioos:station:FWRI:OTB:1,2012-11-09T09:59:00Z,27.9320,-82.6475,766.7966,1111122 
FWRI,ioos:station:FWRI:OTB:1,2012-11-09T10:59:00Z,27.9320,-82.6475,767.1216,1111122 
FWRI,ioos:station:FWRI:OTB:1,2012-11-09T11:59:00Z,27.9320,-82.6475,767.585,1111122 
FWRI,ioos:station:FWRI:OTB:1,2012-11-09T12:59:00Z,27.9320,-82.6475,768.0233,1111122 
FWRI,ioos:station:FWRI:OTB:1,2012-11-09T13:59:00Z,27.9320,-82.6475,768.3333,1111122 
FWRI,ioos:station:FWRI:OTB:1,2012-11-09T14:59:00Z,27.9320,-82.6475,768.7266,1111122 
FWRI,ioos:station:FWRI:OTB:1,2012-11-09T15:59:00Z,27.9320,-82.6475,769.0117,1111122 
FWRI,ioos:station:FWRI:OTB:1,2012-11-09T16:59:00Z,27.9320,-82.6475,768.7533,1111122 
FWRI,ioos:station:FWRI:OTB:1,2012-11-09T17:59:00Z,27.9320,-82.6475,768.14,1111122 
FWRI,ioos:station:FWRI:OTB:1,2012-11-09T18:59:00Z,27.9320,-82.6475,767.3883,1111122 
FWRI,ioos:station:FWRI:OTB:1,2012-11-09T19:59:00Z,27.9320,-82.6475,766.9033,1111122 
FWRI,ioos:station:FWRI:OTB:1,2012-11-09T20:59:00Z,27.9320,-82.6475,766.5683,1111122 
FWRI,ioos:station:FWRI:OTB:1,2012-11-09T21:59:00Z,27.9320,-82.6475,766.3766,1111122 
FWRI,ioos:station:FWRI:OTB:1,2012-11-09T22:59:00Z,27.9320,-82.6475,766.6433,1111122 
FWRI,ioos:station:FWRI:OTB:1,2012-11-09T23:59:00Z,27.9320,-82.6475,766.9733,1111122 
FWRI,ioos:station:FWRI:OTB:1,2012-11-10T00:59:00Z,27.9320,-82.6475,767.2133,1111122 
FWRI,ioos:station:FWRI:OTB:1,2012-11-10T01:59:00Z,27.9320,-82.6475,767.5867,1111122 
FWRI,ioos:station:FWRI:OTB:1,2012-11-10T02:59:00Z,27.9320,-82.6475,767.8417,1111122 
FWRI,ioos:station:FWRI:OTB:1,2012-11-10T03:59:00Z,27.9320,-82.6475,768.08,1111122 
FWRI,ioos:station:FWRI:OTB:1,2012-11-10T04:59:00Z,27.9320,-82.6475,767.9283,1111122 
FWRI,ioos:station:FWRI:OTB:1,2012-11-10T05:59:00Z,27.9320,-82.6475,767.8583,1111122 
FWRI,ioos:station:FWRI:OTB:1,2012-11-10T06:59:00Z,27.9320,-82.6475,767.8966,1111122 
FWRI,ioos:station:FWRI:OTB:1,2012-11-10T07:59:00Z,27.9320,-82.6475,768.0082,1111122 
FWRI,ioos:station:FWRI:OTB:1,2012-11-10T08:59:00Z,27.9320,-82.6475,767.8867,1111122 
FWRI,ioos:station:FWRI:OTB:1,2012-11-10T09:59:00Z,27.9320,-82.6475,767.9316,1111122 
FWRI,ioos:station:FWRI:OTB:1,2012-11-10T10:59:00Z,27.9320,-82.6475,768.1933,1111122 
FWRI,ioos:station:FWRI:OTB:1,2012-11-10T11:59:00Z,27.9320,-82.6475,768.6016,1111122 
FWRI,ioos:station:FWRI:OTB:1,2012-11-10T12:59:00Z,27.9320,-82.6475,769.115,1111122 
FWRI,ioos:station:FWRI:OTB:1,2012-11-10T13:59:00Z,27.9320,-82.6475,769.62,1111122 
FWRI,ioos:station:FWRI:OTB:1,2012-11-10T14:59:00Z,27.9320,-82.6475,769.9716,1111122 
FWRI,ioos:station:FWRI:OTB:1,2012-11-10T15:59:00Z,27.9320,-82.6475,770.0082,1111122 
FWRI,ioos:station:FWRI:OTB:1,2012-11-10T16:59:00Z,27.9320,-82.6475,769.6016,1111122 
FWRI,ioos:station:FWRI:OTB:1,2012-11-10T17:59:00Z,27.9320,-82.6475,768.6749,1111122 
FWRI,ioos:station:FWRI:OTB:1,2012-11-10T18:59:00Z,27.9320,-82.6475,767.8966,1111122 
FWRI,ioos:station:FWRI:OTB:1,2012-11-10T19:59:00Z,27.9320,-82.6475,767.615,1111122 
FWRI,ioos:station:FWRI:OTB:1,2012-11-10T20:59:00Z,27.9320,-82.6475,767.5999,1111122 
FWRI,ioos:station:FWRI:OTB:1,2012-11-10T21:59:00Z,27.9320,-82.6475,767.6083,1111122 
FWRI,ioos:station:FWRI:OTB:1,2012-11-10T22:59:00Z,27.9320,-82.6475,767.86,1111122 
FWRI,ioos:station:FWRI:OTB:1,2012-11-10T23:59:00Z,27.9320,-82.6475,768.215,1111122 
FWRI,ioos:station:FWRI:OTB:1,2012-11-11T00:59:00Z,27.9320,-82.6475,768.6383,1111122 
FWRI,ioos:station:FWRI:OTB:1,2012-11-11T01:59:00Z,27.9320,-82.6475,768.8683,1111122 
FWRI,ioos:station:FWRI:OTB:1,2012-11-11T02:59:00Z,27.9320,-82.6475,769.1966,1111122 
FWRI,ioos:station:FWRI:OTB:1,2012-11-11T03:59:00Z,27.9320,-82.6475,769.1933,1111122 
FWRI,ioos:station:FWRI:OTB:1,2012-11-11T04:59:00Z,27.9320,-82.6475,768.8533,1111122 
FWRI,ioos:station:FWRI:OTB:1,2012-11-11T05:59:00Z,27.9320,-82.6475,768.6666,1111122 
FWRI,ioos:station:FWRI:OTB:1,2012-11-11T06:59:00Z,27.9320,-82.6475,768.2966,1111122 
FWRI,ioos:station:FWRI:OTB:1,2012-11-11T07:59:00Z,27.9320,-82.6475,768.1166,1111122 
FWRI,ioos:station:FWRI:OTB:1,2012-11-11T08:59:00Z,27.9320,-82.6475,767.975,1111122 
FWRI,ioos:station:FWRI:OTB:1,2012-11-11T09:59:00Z,27.9320,-82.6475,768.0833,1111122 
FWRI,ioos:station:FWRI:OTB:1,2012-11-11T10:59:00Z,27.9320,-82.6475,768.1233,1111122 
FWRI,ioos:station:FWRI:OTB:1,2012-11-11T11:59:00Z,27.9320,-82.6475,768.3417,1111122 
FWRI,ioos:station:FWRI:OTB:1,2012-11-11T12:59:00Z,27.9320,-82.6475,768.72,1111122 
FWRI,ioos:station:FWRI:OTB:1,2012-11-11T13:59:00Z,27.9320,-82.6475,769.085,1111122 
FWRI,ioos:station:FWRI:OTB:1,2012-11-11T14:59:00Z,27.9320,-82.6475,769.395,1111122 
FWRI,ioos:station:FWRI:OTB:1,2012-11-11T15:59:00Z,27.9320,-82.6475,769.345,1111122 
FWRI,ioos:station:FWRI:OTB:1,2012-11-11T16:59:00Z,27.9320,-82.6475,768.8166,1111122 
FWRI,ioos:station:FWRI:OTB:1,2012-11-11T17:59:00Z,27.9320,-82.6475,768.2083,1111122 
FWRI,ioos:station:FWRI:OTB:1,2012-11-11T18:59:00Z,27.9320,-82.6475,767.5216,1111122 
FWRI,ioos:station:FWRI:OTB:1,2012-11-11T19:59:00Z,27.9320,-82.6475,767.285,1111122 
FWRI,ioos:station:FWRI:OTB:1,2012-11-11T20:59:00Z,27.9320,-82.6475,767.3317,1111122 
FWRI,ioos:station:FWRI:OTB:1,2012-11-11T21:59:00Z,27.9320,-82.6475,767.3133,1111122 
FWRI,ioos:station:FWRI:OTB:1,2012-11-11T22:59:00Z,27.9320,-82.6475,767.2883,1111122 
FWRI,ioos:station:FWRI:OTB:1,2012-11-11T23:59:00Z,27.9320,-82.6475,767.6183,1111122 
FWRI,ioos:station:FWRI:OTB:1,2012-11-12T00:59:00Z,27.9320,-82.6475,768.1683,1111122 
FWRI,ioos:station:FWRI:OTB:1,2012-11-12T01:59:00Z,27.9320,-82.6475,768.175,1111122 
FWRI,ioos:station:FWRI:OTB:1,2012-11-12T02:59:00Z,27.9320,-82.6475,768.1966,1111122 
FWRI,ioos:station:FWRI:OTB:1,2012-11-12T03:59:00Z,27.9320,-82.6475,767.8666,1111122 
FWRI,ioos:station:FWRI:OTB:1,2012-11-12T04:59:00Z,27.9320,-82.6475,767.77,1111122 
FWRI,ioos:station:FWRI:OTB:1,2012-11-12T05:59:00Z,27.9320,-82.6475,767.4167,1111122 
FWRI,ioos:station:FWRI:OTB:1,2012-11-12T06:59:00Z,27.9320,-82.6475,767.44,1111122 
FWRI,ioos:station:FWRI:OTB:1,2012-11-12T07:59:00Z,27.9320,-82.6475,767.2783,1111122 
FWRI,ioos:station:FWRI:OTB:1,2012-11-12T08:59:00Z,27.9320,-82.6475,767.0383,1111122 
FWRI,ioos:station:FWRI:OTB:1,2012-11-12T09:59:00Z,27.9320,-82.6475,766.7966,1111122 
FWRI,ioos:station:FWRI:OTB:1,2012-11-12T10:59:00Z,27.9320,-82.6475,766.9533,1111122 
FWRI,ioos:station:FWRI:OTB:1,2012-11-12T11:59:00Z,27.9320,-82.6475,767.335,1111122 
FWRI,ioos:station:FWRI:OTB:1,2012-11-12T12:59:00Z,27.9320,-82.6475,767.595,1111122 
FWRI,ioos:station:FWRI:OTB:1,2012-11-12T13:59:00Z,27.9320,-82.6475,767.9366,1111122 
FWRI,ioos:station:FWRI:OTB:1,2012-11-12T14:59:00Z,27.9320,-82.6475,768.2716,1111122 
FWRI,ioos:station:FWRI:OTB:1,2012-11-12T15:59:00Z,27.9320,-82.6475,768.1849,1111122 
FWRI,ioos:station:FWRI:OTB:1,2012-11-12T16:59:00Z,27.9320,-82.6475,767.7617,1111122 
FWRI,ioos:station:FWRI:OTB:1,2012-11-12T17:59:00Z,27.9320,-82.6475,767.0666,1111122 